This is the latest recevied weather packets stored in our database for station/object KC5AV. If no packets are shown the sender has not sent any weather packets the latest 10 day(s).
| Time | Temp. | Humidity | Pressure | Rain* | Wind** | Luminosity | Snow |
|---|---|---|---|---|---|---|---|
| 1777393989 | 26.67° C | 80% | 1015.3 hPa | 0 mm | - | 198 W/m² | - |
| 1777393689 | 26.67° C | 79% | 1015 hPa | 0 mm | - | 165 W/m² | - |
| 1777393384 | 26.67° C | 78% | 1015.4 hPa | 0 mm | - | 110 W/m² | - |
| 1777393081 | 26.67° C | 79% | 1015.3 hPa | 0 mm | - | 143 W/m² | - |
| 1777392776 | 26.67° C | 79% | 1015.1 hPa | 0 mm | - | 143 W/m² | - |
| 1777392473 | 26.67° C | 78% | 1015.3 hPa | 0 mm | - | 150 W/m² | - |
| 1777392169 | 26.67° C | 78% | 1015.4 hPa | 0 mm | - | 181 W/m² | - |
| 1777391864 | 27.22° C | 78% | 1015.6 hPa | 0 mm | - | 163 W/m² | - |
| 1777391559 | 27.22° C | 78% | 1015.4 hPa | 0 mm | - | 233 W/m² | - |
| 1777391256 | 27.22° C | 77% | 1015.3 hPa | 0 mm | - | 247 W/m² | - |
| 1777390953 | 27.22° C | 77% | 1015.4 hPa | 0 mm | - | 342 W/m² | - |
| 1777390648 | 27.22° C | 78% | 1015.1 hPa | 0 mm | - | 311 W/m² | - |
| 1777390346 | 27.22° C | 78% | 1015.1 hPa | 0 mm | - | 348 W/m² | - |
| 1777390041 | 26.67° C | 80% | 1015.2 hPa | 0 mm | - | 356 W/m² | - |
| 1777389739 | 26.67° C | 81% | 1015.2 hPa | 0 mm | - | 276 W/m² | - |
| 1777389435 | 26.67° C | 82% | 1015.3 hPa | 0 mm | - | 274 W/m² | - |
| 1777389132 | 26.67° C | 81% | 1015.3 hPa | 0 mm | - | 220 W/m² | - |
| 1777388825 | 26.67° C | 80% | 1015.2 hPa | 0 mm | - | 173 W/m² | - |
| 1777388522 | 26.67° C | 81% | 1015.1 hPa | 0 mm | - | 278 W/m² | - |
| 1777388222 | 26.11° C | 84% | 1015 hPa | 0 mm | - | 302 W/m² | - |
| 1777387917 | 26.11° C | 83% | 1014.6 hPa | 0 mm | - | 217 W/m² | - |
| 1777387614 | 26.11° C | 83% | 1014.8 hPa | 0 mm | - | 245 W/m² | - |
| 1777387311 | 26.11° C | 84% | 1014.8 hPa | 0 mm | - | 201 W/m² | - |
| 1777387004 | 25.56° C | 85% | 1014.7 hPa | 0 mm | - | 283 W/m² | - |
| 1777386702 | 25.56° C | 86% | 1014.8 hPa | 0 mm | - | 151 W/m² | - |
* Rain latest hour (hover to see other rain measurements)
** Current wind speed in m/s (hover to see current wind gust speed)